This demonstration page uses our WeatherBlox Daily Observations layout. Learn more.

Left ArrowRight Arrow

39.08367, -84.50855

Hourly Observations for January 17, 2018

Temp ( °F °C ) Dew Point ( °F °C ) Humidity (%) Winds ( mph kmh ) Pressure ( in mb ) Visibility ( mi km ) Precip ( " mm )
12:53 am 00:53 Cloudy 10 -12.2 4 -15.6 76 76 W 6 9 30.62 1037 10 16.0934 0 0
1:53 am 01:53 Cloudy 10 -12.2 3 -16.1 73 73 NNW 6 9 30.61 1037 10 16.0934 0 0
2:53 am 02:53 Cloudy 11 -11.7 5 -15 77 77 Calm 30.61 1037 10 16.0934 0 0
3:41 am 03:41 Cloudy with Light Snow 11 -11.7 6 -14.4 81 81 W 3 6 30.65 1038 5 8.0467 0 0.0254
3:53 am 03:53 Cloudy with Light Snow 10 -12.2 6 -14.4 84 84 WSW 5 7 30.62 1037 5 8.0467 0 0.0254
4:42 am 04:42 Cloudy with Light Snow 10 -12.2 6 -14.4 84 84 SW 5 7 30.65 1038 4 6.43736 0 0.0254
4:53 am 04:53 Cloudy with Light Snow 10 -12.2 6 -14.4 84 84 WSW 3 6 30.61 1037 5 8.0467 0 0.0254
5:53 am 05:53 Cloudy with Light Snow 11 -11.7 5 -15 77 77 NW 5 7 30.62 1037 5 8.0467 0 0.0254
6:53 am 06:53 Cloudy with Light Snow 11 -11.7 6 -14.4 81 81 Calm 30.62 1037 6 9.65604 0 0.0254
7:53 am 07:53 Cloudy with Light Snow 11 -11.7 6 -14.4 81 81 NW 3 6 30.62 1037 6 9.65604 0 0.0254
8:36 am 08:36 Cloudy with Light Snow 11 -11.7 7 -13.9 84 84 NW 6 9 30.65 1038 2.5 4.02335 0 0.0254
8:53 am 08:53 Cloudy with Light Snow 11 -11.7 7 -13.9 84 84 NW 3 6 30.62 1037 1.5 2.41401 0 0.0254
9:53 am 09:53 Cloudy with Light Snow 12 -11.1 7 -13.9 80 80 W 7 11 30.64 1038 1.5 2.41401 0 0.0254
10:11 am 10:11 Cloudy with Light Snow 13 -10.6 7 -13.9 77 77 WNW 7 11 30.68 1039 3 4.82802 0 0.0254
10:53 am 10:53 Cloudy with Light Snow 13 -10.6 6 -14.4 74 74 WNW 3 6 30.65 1038 5 8.0467 0 0.0254
11:53 am 11:53 Cloudy with Haze 15 -9.4 8 -13.3 74 74 W 5 7 30.64 1038 6 9.65604 0 0.0254
12:53 pm 12:53 Mostly Cloudy 15 -9.4 8 -13.3 74 74 SW 8 13 30.62 1037 9 14.48406 0 0.0254
1:53 pm 13:53 Mostly Cloudy 17 -8.3 9 -12.8 70 70 WSW 6 9 30.6 1036 9 14.48406 0 0
2:23 pm 14:23 Mostly Cloudy 17 -8.3 9 -12.8 70 70 SW 7 11 30.59 1036 10 16.0934 0 0
2:53 pm 14:53 Partly Cloudy 18 -7.8 10 -12.2 71 71 SSW 6 9 30.58 1036 10 16.0934 0 0
3:31 pm 15:31 Mostly Cloudy 20 -6.7 10 -12.2 65 65 W 6 9 30.59 1036 10 16.0934 0 0
3:53 pm 15:53 Mostly Cloudy 19 -7.2 10 -12.2 68 68 SW 9 15 30.57 1035 10 16.0934 0 0
4:45 pm 16:45 Cloudy 18 -7.8 10 -12.2 71 71 WSW 8 13 30.59 1036 10 16.0934 0 0
4:53 pm 16:53 Mostly Cloudy 18 -7.8 10 -12.2 71 71 SW 7 11 30.58 1035 10 16.0934 0 0
5:01 pm 17:01 Partly Cloudy 18 -7.8 10 -12.2 71 71 SW 8 13 30.59 1036 10 16.0934 0 0
5:53 pm 17:53 Clear 18 -7.8 10 -12.2 71 71 SW 9 15 30.56 1035 10 16.0934 0 0
6:53 pm 18:53 Clear 16 -8.9 9 -12.8 74 74 SW 8 13 30.56 1035 10 16.0934 0 0
7:53 pm 19:53 Clear 13 -10.6 9 -12.8 84 84 S 9 15 30.55 1035 10 16.0934 0 0
8:53 pm 20:53 Clear 14 -10 9 -12.8 80 80 SSW 8 13 30.54 1034 10 16.0934 0 0
9:53 pm 21:53 Clear 13 -10.6 8 -13.3 81 81 SSW 7 11 30.53 1034 10 16.0934 0 0
10:53 pm 22:53 Clear 14 -10 9 -12.8 80 80 SSW 7 11 30.51 1033 10 16.0934 0 0
11:53 pm 23:53 Clear 15 -9.4 9 -12.8 77 77 SW 9 15 30.5 1033 10 16.0934 0 0

Powered by AerisWeather